Resolute,

2:28 AM CDT on October 18, 2017 (GMT -0500)
Resolute

Weather History for CYRB - June, 2013

Change the Weather History Date:

Wednesday, June 12, 2013

  Actual Average Record
Temperature  
Mean Temperature 28 °F -  
Max Temperature 32 °F 39 °F 45 °F (2012)
Min Temperature 23 °F 30 °F 19 °F (1997)
Degree Days  
Heating Degree Days 38    
Moisture  
Dew Point 24 °F    
Average Humidity 86    
Maximum Humidity 93    
Minimum Humidity 77    
Precipitation  
Precipitation 0.00 in 0.02 in - ()
Sea Level Pressure  
Sea Level Pressure 30.27 in    
Wind  
Wind Speed 12 mph ()    
Max Wind Speed 18 mph    
Max Gust Speed -    
Visibility 13.7 miles    
Events Fog    
Averages and records for this station are not official NWS values.
T = Trace of Precipitation, MM = Missing Value Source: Averaged Metar Reports

Daily Weather History Graph

Daily Weather History Graph

Search for Another Location

Airport or City:

Trip Planner

Search our weather history database for the weather conditions in past years. The results will help you decide how hot, cold, wet, or windy it might be!

Date:

Astronomy

Dec. 31, 1969 Rise Set
Actual Time Sun does not rise Sun does not rise
Civil Twilight Sun does not rise Sun does not rise
Nautical Twilight Sun does not rise Sun does not rise
Astronomical Twilight Sun does not rise Sun does not rise
Moon 5:24 AM CDT (6/12) 3:08 AM CDT (6/12)
Length of Visible Light 24h 00m
Length of Day
24h 00m
Waxing Crescent, 14% of the Moon is Illuminated
Jun 12
Waxing Crescent
Jun 16
First Quarter
Jun 23
Full
Jun 29
Last Quarter
Jul 8
New

Hourly Weather History & Observations

Time (CDT) Temp. Windchill Dew Point Humidity Pressure Visibility Wind Dir Wind Speed Gust Speed Precip Events Conditions
12:00 AM 24.8 °F 11.9 °F 21.2 °F 86% 30.31 in 15.0 mi NNW 16.1 mph - N/A   Overcast
1:00 AM 25 °F - 21 °F 77% 30.31 in 15 mi NNW 18.4 mph - -   Mostly Cloudy
1:00 AM 24.8 °F 11.1 °F 21.2 °F 86% 30.31 in 15.0 mi NNW 18.4 mph - N/A   Mostly Cloudy
2:00 AM 24.8 °F 13.4 °F 21.2 °F 86% 30.31 in 15.0 mi NW 12.7 mph - N/A   Overcast
3:00 AM 23.0 °F 13.1 °F 21.2 °F 93% 30.31 in 15.0 mi NW 9.2 mph - N/A   Mostly Cloudy
4:00 AM 23.0 °F 12.4 °F 19.4 °F 86% 30.31 in 15.0 mi NW 10.4 mph - N/A   Mostly Cloudy
5:00 AM 23.0 °F 13.1 °F 19.4 °F 86% 30.30 in 15.0 mi NW 9.2 mph - N/A   Overcast
5:51 AM - - - N/A% - 15.0 mi NNW 15.0 mph - N/A   Mostly Cloudy
6:00 AM 24.8 °F 12.9 °F 21.2 °F 86% 30.30 in 15.0 mi NW 13.8 mph - N/A   Mostly Cloudy
7:00 AM 26.6 °F 13.4 °F 23.0 °F 86% 30.30 in 15.0 mi NW 18.4 mph - N/A   Mostly Cloudy
7:26 AM - - - N/A% - 15.0 mi NNW 17.3 mph - N/A   Mostly Cloudy
8:00 AM 26.6 °F 13.4 °F 23.0 °F 86% 30.28 in 15.0 mi NNW 18.4 mph - N/A   Overcast
9:00 AM 28.4 °F 20.4 °F 23.0 °F 80% 30.28 in 15.0 mi NW 8.1 mph - N/A   Mostly Cloudy
9:42 AM - - - N/A% - 15.0 mi NNW 11.5 mph - N/A   Mostly Cloudy
10:00 AM 26.6 °F 15.7 °F 23.0 °F 86% 30.27 in 15.0 mi NNW 12.7 mph - N/A   Mostly Cloudy
11:00 AM 28.4 °F 18.5 °F 24.8 °F 86% 30.27 in 15.0 mi NW 11.5 mph - N/A   Mostly Cloudy
12:00 PM 28.4 °F 18.0 °F 24.8 °F 86% 30.26 in 15.0 mi NNW 12.7 mph - N/A   Mostly Cloudy
1:00 PM 29 °F - 25 °F 77% 30.26 in 15 mi NW 13.8 mph - -   Mostly Cloudy
1:00 PM 28.4 °F 17.5 °F 24.8 °F 86% 30.26 in 15.0 mi NW 13.8 mph - N/A   Mostly Cloudy
2:00 PM 30.2 °F 18.9 °F 26.6 °F 86% 30.25 in 15.0 mi NNW 16.1 mph - N/A   Mostly Cloudy
3:00 PM 30.2 °F 19.8 °F 26.6 °F 86% 30.25 in 15.0 mi NW 13.8 mph - N/A   Mostly Cloudy
4:00 PM 32.0 °F 22.5 °F 26.6 °F 80% 30.24 in 15.0 mi NW 12.7 mph - N/A   Scattered Clouds
5:00 PM 30.2 °F 19.8 °F 26.6 °F 86% 30.24 in 15.0 mi WNW 13.8 mph - N/A   Scattered Clouds
6:00 PM 30.2 °F 19.3 °F 26.6 °F 86% 30.24 in 15.0 mi WNW 15.0 mph - N/A   Mostly Cloudy
7:00 PM 31 °F - 28 °F 82% 30.24 in 15 mi WNW 8.1 mph - -   Partly Cloudy
7:00 PM 30.2 °F 22.6 °F 28.4 °F 93% 30.24 in 15.0 mi WNW 8.1 mph - N/A   Mostly Cloudy
7:43 PM - - - N/A% - 1.5 mi WNW 8.1 mph - N/A   Overcast
8:00 PM 30.2 °F 22.6 °F 28.4 °F 93% 30.23 in 1.5 mi WNW 8.1 mph - N/A   Overcast
8:15 PM - - - N/A% - 8.0 mi NW 8.1 mph - N/A Fog Overcast
9:00 PM 32.0 °F 24.2 °F 28.4 °F 87% 30.22 in 10.0 mi WNW 9.2 mph - N/A   Overcast
10:00 PM 32.0 °F 24.8 °F 28.4 °F 87% 30.22 in 15.0 mi WNW 8.1 mph - N/A   Overcast
11:00 PM 30.2 °F 23.4 °F 28.4 °F 93% 30.22 in 10.0 mi WNW 6.9 mph - N/A Fog Overcast
11:43 PM - - - N/A% - 15.0 mi WNW 6.9 mph - N/A Fog Mostly Cloudy